Location: State Camp
(41.2367°N, 77.7828°W)
Time: 11:56:19
(UTC-04:00)

ADEOS Rocket - Visible Passes

Search period start: 30 August 2015 00:00
Search period end: 09 September 2015 00:00
Orbit: 859 x 1307 km, 98.7° (Epoch: 28 August)

Date Brightness Start Highest point End Pass type
(mag) Time Alt. Az. Time Alt. Az. Time Alt. Az.
30 Aug 4.9 20:07:22 10° SSW 20:14:25 42° W 20:20:53 10° NNW visible
31 Aug 6.1 21:07:28 10° WSW 21:11:45 15° W 21:15:27 10° NW visible
01 Sep 5.1 20:15:31 10° SSW 20:22:16 36° W 20:28:25 10° NNW visible
02 Sep 6.2 21:16:32 10° WSW 21:19:42 13° W 21:22:15 10° WNW visible
03 Sep 5.4 20:23:44 10° SSW 20:30:07 31° W 20:35:55 10° NW visible
05 Sep 5.6 20:32:02 10° SSW 20:37:59 26° W 20:43:20 10° NW visible
07 Sep 5.8 20:40:26 10° SW 20:45:51 22° W 20:50:41 10° NW visible
08 Sep 4.4 19:49:40 10° S 19:56:35 50° W 20:02:49 10° NNW visible
